Vicksburg, LA

8:37 AM CDT on May 24, 2017 (GMT -0500)
Vicksburg Tallulah Regional

Weather History for KTVR - January, 2014

Change the Weather History Date:

Monday, January 13, 2014

  Actual Average Record
Temperature  
Mean Temperature 57 °F 45 °F  
Max Temperature 65 °F 55 °F 78 °F (2017)
Min Temperature 48 °F 35 °F 9 °F (1962)
Degree Days  
Heating Degree Days 8 20  
Month to date heating degree days 289 259  
Since 1 July heating degree days 1414 1196  
Cooling Degree Days 0 0  
Month to date cooling degree days 0 0  
Year to date cooling degree days 0 0  
Growing Degree Days 7 (Base 50)    
Moisture  
Dew Point 51 °F    
Average Humidity 72    
Maximum Humidity 93    
Minimum Humidity 51    
Precipitation  
Precipitation 0.47 in 0.15 in 1.64 in (1989)
Month to date precipitation 2.26 2.05  
Year to date precipitation 2.26 2.05  
Sea Level Pressure  
Sea Level Pressure 29.94 in    
Wind  
Wind Speed 7 mph (SSW)    
Max Wind Speed 17 mph    
Max Gust Speed 22 mph    
Visibility 10 miles    
Events Rain    
T = Trace of Precipitation, MM = Missing Value Source: NWS Daily Summary

Daily Weather History Graph

Daily Weather History Graph

Search for Another Location

Airport or City:

Trip Planner

Search our weather history database for the weather conditions in past years. The results will help you decide how hot, cold, wet, or windy it might be!

Date:

Astronomy

Jan. 13, 2014 Rise Set
Actual Time 7:06 AM CST 5:19 PM CST
Civil Twilight 6:39 AM CST 5:46 PM CST
Nautical Twilight 6:09 AM CST 6:16 PM CST
Astronomical Twilight 5:39 AM CST 6:46 PM CST
Moon 3:34 PM CST (1/13) 4:55 AM CST (1/13)
Length of Visible Light 11h 07m
Length of Day
10h 13m
Waxing Gibbous, 95% of the Moon is Illuminated
Jan 13
Waxing Gibbous
Jan 15
Full
Jan 23
Last Quarter
Jan 30
New
Feb 6
First Quarter

Hourly Weather History & Observations

Time (CST) Temp. Dew Point Humidity Pressure Visibility Wind Dir Wind Speed Gust Speed Precip Events Conditions
12:53 AM 55.9 °F 37.0 °F 49% 30.02 in 10.0 mi South 10.4 mph - N/A   Mostly Cloudy
1:53 AM 54.0 °F 42.1 °F 64% 30.04 in 10.0 mi South 8.1 mph - 0.00 in Rain Light Rain
2:53 AM 52.0 °F 46.0 °F 80% 30.01 in 10.0 mi SSE 10.4 mph - 0.03 in Rain Light Rain
3:53 AM 51.1 °F 46.9 °F 86% 30.04 in 10.0 mi South 5.8 mph - 0.01 in Rain Rain
4:53 AM 50.0 °F 48.0 °F 93% 29.99 in 10.0 mi East 4.6 mph - 0.05 in Rain Light Rain
5:53 AM 50.0 °F 48.0 °F 93% 30.01 in 10.0 mi ESE 3.5 mph - 0.03 in Rain Light Rain
6:53 AM 51.1 °F 48.9 °F 92% 30.01 in 3.0 mi South 5.8 mph - 0.14 in Rain Heavy Rain
7:53 AM 51.1 °F 48.9 °F 92% 29.96 in 5.0 mi SE 9.2 mph - 0.13 in Rain Rain
8:53 AM 54.0 °F 52.0 °F 93% 29.94 in 10.0 mi SSE 12.7 mph - 0.05 in Rain Light Rain
9:53 AM 55.0 °F 53.1 °F 93% 29.95 in 10.0 mi South 9.2 mph - 0.01 in   Overcast
10:53 AM 57.0 °F 55.0 °F 93% 29.92 in 10.0 mi SSE 8.1 mph - 0.01 in Rain Light Rain
11:53 AM 57.9 °F 55.9 °F 93% 29.88 in 10.0 mi South 9.2 mph - 0.01 in   Overcast
12:29 PM 60.1 °F 57.0 °F 90% 29.84 in 10.0 mi South 10.4 mph - N/A   Overcast
12:43 PM 60.1 °F 57.0 °F 90% 29.84 in 10.0 mi South 8.1 mph - N/A   Overcast
12:53 PM 60.1 °F 57.0 °F 90% 29.85 in 10.0 mi South 10.4 mph - N/A   Overcast
1:53 PM 62.1 °F 57.9 °F 86% 29.85 in 10.0 mi SW 4.6 mph - 0.00 in   Overcast
2:53 PM 63.0 °F 59.0 °F 87% 29.84 in 10.0 mi WSW 8.1 mph - N/A   Overcast
3:53 PM 64.9 °F 59.0 °F 81% 29.84 in 10.0 mi WSW 5.8 mph - N/A   Scattered Clouds
4:32 PM 64.9 °F 59.0 °F 81% 29.83 in 10.0 mi WSW 3.5 mph - N/A   Mostly Cloudy
4:40 PM 64.0 °F 59.0 °F 84% 29.83 in 10.0 mi Calm Calm - N/A   Scattered Clouds
4:53 PM 64.0 °F 59.0 °F 84% 29.86 in 10.0 mi West 4.6 mph - N/A   Partly Cloudy
5:53 PM 63.0 °F 53.1 °F 70% 29.90 in 10.0 mi NNW 9.2 mph 21.9 mph N/A   Scattered Clouds
6:53 PM 57.0 °F 50.0 °F 77% 29.93 in 10.0 mi North 5.8 mph - N/A   Scattered Clouds
7:53 PM 55.0 °F 51.1 °F 86% 29.97 in 10.0 mi WNW 5.8 mph - N/A   Mostly Cloudy
8:53 PM 53.1 °F 48.0 °F 83% 29.99 in 10.0 mi WNW 4.6 mph - N/A   Scattered Clouds
9:53 PM 53.1 °F 39.0 °F 59% 30.01 in 10.0 mi NW 5.8 mph - N/A   Partly Cloudy
10:53 PM 50.0 °F 37.9 °F 63% 30.04 in 10.0 mi WNW 8.1 mph - N/A   Clear
11:53 PM 48.9 °F 37.0 °F 64% 30.05 in 10.0 mi WNW 5.8 mph - N/A   Clear